DGAADXXX

Guest
Details From DGAA - Accra_Kotoka_Intl
To DXXX - GNASSINGBE EYADEMA INTL
Flight Number -
Tags generated
Created
Modified
Stats Distance 91 nm / 169 km
Max Altitude 7,500 ft / 2,286 m
Waypoints 3
Social Downloads 5
Likes 0
Share VATSIM

Download

Looking for another format? Having issues loading an existing format? Contact us
Advertisement - Login to hide

Notes

Basic altitude profile: - Ascent Rate: 2500ft/min - Ascent Speed: 250kts - Cruise Altitude: 35000ft - Cruise Speed: 420kts - Descent Rate: 1500ft/min - Descent Speed: 250kts Options: - Use NATs: yes - Use PACOTS: yes - Use low airways: yes - Use high airways: yes

Route

DGAA GAPEN DXXX

ID Type Via Altitude Latitude Longitude Leg Dist Tot Dist Heading (true) Name
O DGAA APT - 0 ft / 0 m 5.60258˚ -0.16760˚ - 0 nm - Accra_Kotoka_Intl
GAPEN FIX - 7,500 ft / 2,286 m 5.94720˚ 0.71084˚ 56 nm 56 nm 68° / 69° -
O DXXX APT - 0 ft / 0 m 6.16574˚ 1.25414˚ 35 nm 91 nm 68° / 68° GNASSINGBE EYADEMA INTL

Altitude Profile

Advertisement - Login to hide

DGAA

Details ICAO DGAA (ACC)
Name Accra_Kotoka_Intl
Region Ghana
Timezone Africa/Accra (UTC+0.0)
Stats Elevation 204 ft / 62 m (AMSL)
Location 5.602578° -0.167602°
Runways 1
Magnetic Variation 3.374° W

METAR

DGAA 220300Z 24006KT 240V300 CAVOK 27/25 Q1011 NOSIG

Decode

TAF

TAF DGAA 212300Z 2200/2306 27008KT 9999 SCT012 BKN015 BECMG 2311/2313 18013KT FEW028 FM232000 20009KT 9999 BKN013

Decode

Departure Runways

ID Width Length Bearing (true) Bearing (mag) Surface Threshold Offset Overrun Length
03 200 ft / 61 m 11,176 ft / 3,406 m 22.00° 25.37° Asphalt 0 ft / 0 m 351 ft / 107 m
21 200 ft / 61 m 11,176 ft / 3,406 m 202.00° 205.37° Asphalt 1,355 ft / 413 m 0 ft / 0 m

DXXX

Details ICAO DXXX (LFW)
Name GNASSINGBE EYADEMA INTL
Region Togolese Republic
Timezone Africa/Lome (UTC+0.0)
Stats Elevation 72 ft / 22 m (AMSL)
Location 6.165736° 1.254142°
Runways 1
Magnetic Variation 2.829° W

METAR

DXXX 220300Z 28003KT 9999 SCT011 27/25 Q1011 NOSIG

Decode

TAF

TAF DXXX 212300Z 2200/2306 26006KT 9999 FEW012 BECMG 2208/2210 20012KT BECMG 2300/2302 26005KT

Decode

Destination Runways

ID Width Length Bearing (true) Bearing (mag) Surface Threshold Offset Overrun Length
04 148 ft / 45 m 9,878 ft / 3,011 m 38.40° 41.23° Asphalt 0 ft / 0 m 197 ft / 60 m
22 148 ft / 45 m 9,878 ft / 3,011 m 218.40° 221.23° Asphalt 0 ft / 0 m 197 ft / 60 m

Approach Navaids

Runway Type Ident Frequency Range Bearing (true) Bearing (mag) Slope Elevation
22 Localiser LO 110.10 MHz 18 nm / 33 km 218.43° 221.26° - 72 ft / 22 m (AMSL)
22 Glidescope LO 110.10 MHz 15 nm / 28 km 223.00° 225.83° 3.00° 72 ft / 22 m (AMSL)

Popular Alternatives